Torna al catalogo

GALILEO 9 (205)

LostNavigazioneMEO
NORAD 40889·PAYLOAD·🇪🇺 EU

Lanciato Sep 11, 2015 da Guiana Space Centre

Loading…

Prossimi Passaggi (prossime 24 ore)

TLE

ObsoletoSource: Space-Track

Epoca: May 24, 2026, 07:17 UTC

1 40889U 15045A   26144.30399159 -.00000014  00000-0  00000-0 0  9996
2 40889  54.9357 222.4171 0006406 263.0112  96.9692  1.67409242 66563

Traccia GALILEO 9 (205) in tempo reale con AllMySat

Download on the App Store